When you browse on this site, cookies collect data to enhance your experience and personalize the content and advertising you see.
Visit our Privacy Policy to learn more. By continuing to use the site, you agree to this use of cookies and data.

Hourly Weather Inverclyde

Today, 3 July, Friday

Time Temperature Precipitation Wind Pressure Humidity
00:00 +10°C° 0 mm 1 mps 754 mmHg 86%
01:00 +10°C° 0.2 mm 1 mps 754 mmHg 88%
02:00 +10°C° 0.2 mm 1 mps 753 mmHg 89%
03:00 +8°C° 0.2 mm 2 mps 752 mmHg 91%
04:00 +9°C° 0.4 mm 1 mps 752 mmHg 92%
05:00 +9°C° 0.4 mm 1 mps 751 mmHg 93%
06:00 +10°C° 0 mm 1 mps 751 mmHg 94%
07:00 +10°C° 0.5 mm 1 mps 750 mmHg 95%
08:00 +10°C° 0.5 mm 1 mps 750 mmHg 95%
09:00 +10°C° 0.5 mm 1 mps 749 mmHg 95%
10:00 +11°C° 0.3 mm 1 mps 749 mmHg 95%
11:00 +11°C° 0.3 mm 1 mps 749 mmHg 94%
12:00 +12°C° 0 mm 1 mps 749 mmHg 92%
13:00 +12°C° 1.4 mm 2 mps 748 mmHg 93%
14:00 +13°C° 1.4 mm 2 mps 748 mmHg 93%
15:00 +12°C° 1.4 mm 3 mps 748 mmHg 94%
16:00 +12°C° 0.3 mm 3 mps 748 mmHg 90%
17:00 +13°C° 0.3 mm 4 mps 748 mmHg 86%
18:00 +13°C° 0.3 mm 4 mps 749 mmHg 82%
19:00 +12°C° 0 mm 4 mps 749 mmHg 85%
20:00 +11°C° 0 mm 3 mps 749 mmHg 88%
21:00 +10°C° 0 mm 3 mps 750 mmHg 91%
22:00 +9°C° 0 mm 3 mps 750 mmHg 92%
23:00 +9°C° 0 mm 2 mps 750 mmHg 93%

Tomorrow, 4 July, Saturday

Time Temperature Precipitation Wind Pressure Humidity
00:00 +8°C° 0 mm 2 mps 750 mmHg 95%
01:00 +8°C° 0 mm 2 mps 750 mmHg 94%
02:00 +8°C° 0 mm 2 mps 750 mmHg 94%
03:00 +8°C° 0 mm 2 mps 750 mmHg 94%
04:00 +9°C° 0.1 mm 2 mps 750 mmHg 92%
05:00 +10°C° 0.1 mm 2 mps 750 mmHg 90%
06:00 +12°C° 0.1 mm 2 mps 750 mmHg 89%
07:00 +12°C° 0.2 mm 2 mps 750 mmHg 87%
08:00 +13°C° 0.2 mm 2 mps 750 mmHg 86%
09:00 +13°C° 0.2 mm 2 mps 750 mmHg 84%
10:00 +13°C° 0.1 mm 2 mps 750 mmHg 84%
11:00 +13°C° 0.1 mm 2 mps 750 mmHg 83%
12:00 +14°C° 0.1 mm 2 mps 750 mmHg 83%
13:00 +13°C° 0.1 mm 3 mps 750 mmHg 80%
14:00 +14°C° 0.1 mm 3 mps 750 mmHg 77%
15:00 +16°C° 0.1 mm 3 mps 750 mmHg 74%
16:00 +16°C° 0.1 mm 3 mps 750 mmHg 72%
17:00 +16°C° 0.1 mm 2 mps 749 mmHg 71%
18:00 +16°C° 0.1 mm 2 mps 749 mmHg 69%
19:00 +15°C° 0 mm 2 mps 749 mmHg 75%
20:00 +14°C° 0 mm 1 mps 748 mmHg 81%
21:00 +13°C° 0 mm 1 mps 748 mmHg 87%
22:00 +13°C° 0.9 mm 2 mps 746 mmHg 90%
23:00 +12°C° 0.9 mm 2 mps 744 mmHg 93%

Day after tomorrow, 5 July, Sunday

Time Temperature Precipitation Wind Pressure Humidity
00:00 +11°C° 0.9 mm 3 mps 743 mmHg 97%
01:00 +11°C° 2.7 mm 3 mps 741 mmHg 97%
02:00 +13°C° 2.7 mm 2 mps 739 mmHg 97%
03:00 +13°C° 2.7 mm 2 mps 737 mmHg 97%
04:00 +12°C° 0.4 mm 5 mps 737 mmHg 95%
05:00 +10°C° 0.4 mm 9 mps 737 mmHg 92%
06:00 +9°C° 0.4 mm 12 mps 737 mmHg 90%
07:00 +9°C° 0.8 mm 11 mps 738 mmHg 90%
08:00 +8°C° 0.8 mm 10 mps 739 mmHg 91%
09:00 +8°C° 0.8 mm 9 mps 740 mmHg 91%
10:00 +9°C° 0.2 mm 8 mps 741 mmHg 89%
11:00 +10°C° 0.2 mm 7 mps 742 mmHg 86%
12:00 +10°C° 0.2 mm 6 mps 743 mmHg 83%
13:00 +11°C° 0.3 mm 6 mps 744 mmHg 80%
14:00 +12°C° 0.3 mm 7 mps 744 mmHg 76%
15:00 +14°C° 0.3 mm 7 mps 745 mmHg 72%
16:00 +13°C° 0.4 mm 6 mps 745 mmHg 75%
17:00 +13°C° 0.4 mm 5 mps 745 mmHg 78%
18:00 +12°C° 0.4 mm 5 mps 745 mmHg 81%
19:00 +11°C° 0.1 mm 4 mps 746 mmHg 84%
20:00 +11°C° 0.1 mm 4 mps 746 mmHg 86%
21:00 +10°C° 0.1 mm 3 mps 747 mmHg 89%
22:00 +9°C° 0 mm 3 mps 747 mmHg 91%
23:00 +9°C° 0 mm 3 mps 748 mmHg 92%

6 July, Monday

Time Temperature Precipitation Wind Pressure Humidity
00:00 +9°C° 0 mm 2 mps 749 mmHg 93%
01:00 +9°C° 0.1 mm 2 mps 750 mmHg 94%
02:00 +9°C° 0.1 mm 3 mps 751 mmHg 94%
03:00 +9°C° 0.1 mm 3 mps 752 mmHg 94%
04:00 +10°C° 0.2 mm 3 mps 753 mmHg 93%
05:00 +10°C° 0.2 mm 4 mps 754 mmHg 91%
06:00 +10°C° 0.2 mm 4 mps 755 mmHg 89%
07:00 +10°C° 0.1 mm 5 mps 756 mmHg 85%
08:00 +10°C° 0.1 mm 5 mps 757 mmHg 80%
09:00 +10°C° 0.1 mm 5 mps 758 mmHg 75%
10:00 +12°C° 0.1 mm 5 mps 759 mmHg 72%
11:00 +12°C° 0.1 mm 5 mps 759 mmHg 69%
12:00 +13°C° 0.1 mm 5 mps 760 mmHg 65%
13:00 +13°C° 0 mm 5 mps 760 mmHg 65%
14:00 +13°C° 0 mm 5 mps 761 mmHg 64%
15:00 +13°C° 0 mm 6 mps 761 mmHg 63%
16:00 +13°C° 0 mm 6 mps 761 mmHg 64%
17:00 +13°C° 0 mm 6 mps 761 mmHg 66%
18:00 +11°C° 0 mm 6 mps 761 mmHg 68%
19:00 +11°C° 0 mm 6 mps 761 mmHg 72%
20:00 +10°C° 0 mm 5 mps 761 mmHg 76%
21:00 +10°C° 0 mm 5 mps 761 mmHg 80%
22:00 +10°C° 0.1 mm 5 mps 761 mmHg 83%
23:00 +9°C° 0.1 mm 5 mps 761 mmHg 86%

7 July, Tuesday

Time Temperature Precipitation Wind Pressure Humidity
00:00 +9°C° 0.1 mm 5 mps 761 mmHg 89%
01:00 +10°C° 0.1 mm 4 mps 761 mmHg 88%
02:00 +10°C° 0.1 mm 4 mps 761 mmHg 88%
03:00 +8°C° 0.1 mm 4 mps 761 mmHg 88%
04:00 +10°C° 0 mm 4 mps 761 mmHg 87%
05:00 +10°C° 0 mm 4 mps 761 mmHg 85%
06:00 +10°C° 0 mm 4 mps 761 mmHg 84%
07:00 +11°C° 0 mm 4 mps 762 mmHg 79%
08:00 +12°C° 0 mm 4 mps 762 mmHg 74%
09:00 +13°C° 0 mm 4 mps 762 mmHg 70%
10:00 +13°C° 0.1 mm 3 mps 762 mmHg 67%
11:00 +14°C° 0.1 mm 3 mps 762 mmHg 65%
12:00 +16°C° 0.1 mm 3 mps 762 mmHg 63%
13:00 +16°C° 0.1 mm 2 mps 762 mmHg 64%
14:00 +16°C° 0.1 mm 2 mps 762 mmHg 64%
15:00 +16°C° 0.1 mm 2 mps 762 mmHg 65%
16:00 +15°C° 0.1 mm 2 mps 762 mmHg 68%
17:00 +15°C° 0.1 mm 2 mps 761 mmHg 70%
18:00 +15°C° 0.1 mm 2 mps 761 mmHg 73%
19:00 +14°C° 0 mm 2 mps 761 mmHg 79%
20:00 +12°C° 0 mm 2 mps 761 mmHg 85%
21:00 +10°C° 0 mm 2 mps 760 mmHg 91%
22:00 +10°C° 0 mm 2 mps 760 mmHg 91%
23:00 +10°C° 0 mm 2 mps 759 mmHg 92%

8 July, Wednesday

Time Temperature Precipitation Wind Pressure Humidity
00:00 +11°C° 0 mm 1 mps 759 mmHg 92%
01:00 +10°C° 0.9 mm 2 mps 758 mmHg 94%
02:00 +10°C° 0.9 mm 2 mps 757 mmHg 95%
03:00 +10°C° 0.9 mm 2 mps 756 mmHg 97%
04:00 +10°C° 1.4 mm 2 mps 755 mmHg 97%
05:00 +10°C° 1.4 mm 2 mps 754 mmHg 97%
06:00 +11°C° 1.4 mm 1 mps 753 mmHg 98%
07:00 +11°C° 0.7 mm 1 mps 753 mmHg 97%
08:00 +12°C° 0.7 mm 1 mps 752 mmHg 97%
09:00 +12°C° 0.7 mm 1 mps 751 mmHg 97%
10:00 +13°C° 0.5 mm 1 mps 751 mmHg 96%
11:00 +13°C° 0.5 mm 1 mps 751 mmHg 96%
12:00 +14°C° 0.5 mm 2 mps 750 mmHg 95%
13:00 +13°C° 0.3 mm 3 mps 750 mmHg 93%
14:00 +14°C° 0.3 mm 4 mps 751 mmHg 91%
15:00 +14°C° 0.3 mm 5 mps 751 mmHg 89%
16:00 +13°C° 0.2 mm 5 mps 752 mmHg 90%
17:00 +12°C° 0.2 mm 5 mps 753 mmHg 91%
18:00 +10°C° 0.2 mm 6 mps 754 mmHg 93%
19:00 +9°C° 0.1 mm 5 mps 755 mmHg 93%
20:00 +10°C° 0.1 mm 3 mps 757 mmHg 92%
21:00 +9°C° 0.1 mm 2 mps 758 mmHg 92%
22:00 +9°C° 0 mm 2 mps 758 mmHg 92%
23:00 +8°C° 0 mm 2 mps 759 mmHg 92%
Show more